SCP
-0 -0 -0 -0 -0 -0 -0 -0 -1 -1 -1 -0 -0 -0 -0 -0 -0 -0 -0 0 -0 -0 -0 -0 -0 -0 -0 -0 0 0 0 0 0 0 0 0 0 0 0 0 0 0 0
-0 -0 -0 -0 -0 -0 -0 -0 -0 -1 -0 -0 -0 -0 -0 -0 -0 -0 -0 -0 0 0 0 0 0 0 0 0 0 0 0 0 0 0 0 0 0 0 0 0 -0 -0 0
-0 -0 -0 -0 -0 -0 -0 -0 -1 -1 -1 -0 -0 -0 -0 -0 -0 -0 -0 -0 0 0 0 0 0 0 0 0 0 0 0 0 0 0 0 0 0 0 0 0 0 0 0
-0 -0 -0 -0 -0 -0 -0 -0 -0 -1 -1 -0 -0 -0 -0 -0 -0 -0 -0 -0 -0 -0 -0 0 0 0 0 0 0 0 0 0 0 0 0 0 0 0 0 0 0 0 0
-0 -0 -0 -0 -0 -0 -0 -0 -0 -0 -0 -0 -0 -0 -0 -0 -0 0 0 -0 -0 -0 -0 0 0 0 0 0 0 0 0 0 0 0 -0 -0 -0 0 0 0 0 0 0
-0 -0 -0 -0 -0 -0 -0 -0 -0 -0 -0 -0 -0 -0 -0 -0 0 0 0 -0 -0 -0 -0 0 0 0 0 0 0 0 -0 -0 -0 0 -0 -0 0 0 0 0 0 0 0
-0 -0 -0 -0 -0 -0 -0 -0 0 -0 -0 -0 -0 -0 0 0 0 0 0 0 -0 -0 0 0 0 0 0 0 0 0 -0 -0 -0 -0 -0 -0 -0 -0 0 0 0 0 0
0 -0 0 0 0 0 0 0 0 0 -0 0 0 0 0 0 0 0 0 0 0 0 0 0 0 0 0 0 0 0 0 -0 -0 -0 -0 -0 0 0 0 0 0 0 0
0 0 0 0 0 0 0 0 0 0 0 0 0 0 0 0 0 0 0 0 0 0 0 0 0 0 0 0 0 0 0 0 -0 -0 -0 -0 0 0 -0 0 0 0 0
0 0 0 0 0 0 0 0 0 0 0 0 0 0 0 0 0 0 0 0 0 0 0 0 0 0 0 0 0 0 -0 -0 0 -0 0 0 0 -0 0 0 0 0 0
0 0 0 0 0 0 0 0 0 0 0 0 0 0 0 0 0 0 0 0 0 0 0 0 0 0 0 0 0 0 0 -0 0 0 0 0 0 -0 -0 -0 0 0 0
0 0 0 0 0 0 0 0 0 0 0 0 0 0 0 0 0 0 0 0 0 0 0 0 0 0 0 0 0 0 0 0 0 0 0 0 0 -0 -0 0 0 0 0
0 0 0 0 0 0 0 0 0 0 0 0 0 0 0 0 0 0 0 0 0 0 0 0 0 0 0 0 0 0 0 0 0 0 0 0 0 0 -0 0 0 0 0
0 0 0 0 0 0 0 0 0 0 0 0 0 1 0 0 0 0 0 0 0 0 0 0 0 0 0 0 0 0 0 0 0 0 0 0 0 0 0 0 0 0 0
0 0 0 0 1 1 1 1 0 1 0 0 1 1 0 0 0 0 0 0 0 0 0 0 0 0 0 0 0 0 0 0 0 0 0 0 0 0 0 0 0 0 0
0 0 0 1 1 1 1 1 1 1 1 0 1 1 0 0 0 0 0 0 0 1 1 1 1 1 1 1 0 0 0 0 0 0 0 0 1 1 0 0 0 0 0
0 0 1 1 1 1 2 2 1 1 1 1 1 1 1 1 1 0 0 0 0 0 0 1 1 1 1 1 1 1 1 0 0 1 1 1 0 0 1 1 1 1 1
0 0 1 1 1 2 2 2 2 1 1 1 1 1 1 1 0 1 1 1 1 1 1 1 1 1 1 1 1 0 0 1 1 1 1 1 1 1 1 1 1 1 1
0 0 0 1 1 1 1 1 1 1 1 1 1 1 1 1 1 1 1 1 2 1 1 1 1 1 1 1 1 1 1 0 0 1 1 1 1 1 2 1 1 1 1
0 0 0 0 1 1 1 1 1 1 1 1 1 2 1 1 1 1 1 2 2 2 2 2 2 1 1 1 1 1 1 1 1 1 1 1 1 1 2 2 1 1 1
0 0 0 0 1 1 1 2 1 1 1 1 1 1 1 1 1 1 1 2 1 2 2 2 2 1 1 1 1 1 1 1 1 2 1 1 1 1 2 2 2 1 1
0 0 0 0 1 1 1 1 1 1 1 1 1 1 1 1 2 2 1 1 1 1 1 1 1 1 1 1 1 1 1 0 1 1 1 1 1 2 1 1 2 2 1
0 0 0 0 0 1 1 2 1 1 2 2 2 2 3 2 2 2 2 2 2 2 1 2 2 2 1 1 2 1 1 0 0 1 1 0 1 2 1 1 1 0 0
0 0 0 0 0 1 1 2 2 1 1 2 3 4 4 3 2 2 2 1 1 1 1 1 1 1 1 1 1 2 2 1 1 0 0 1 1 1 1 1 0 -0 -0
0 0 0 0 1 1 2 2 2 2 3 3 3 2 1 1 1 1 1 1 1 0 1 1 1 1 1 1 1 1 1 2 2 3 1 1 0 0 0 0 0 0 0
0 0 0 1 1 1 2 2 3 3 3 2 1 1 1 1 1 1 0 1 0 0 0 0 0 0 0 1 0 0 0 0 1 1 2 1 1 1 1 1 1 0 0
Wind_Speed_500mb
29 37 43 40 39 36 33 30 32 38 38 35 32 28 25 20 14 19 28 33 30 28 25 20 17 15 14 14 15 17 18 16 16 16 18 20 21 20 21 22 24 10 14
39 36 44 42 40 36 32 32 38 39 39 36 31 27 22 16 12 21 28 30 28 26 21 16 13 12 12 13 14 15 14 13 12 11 14 18 19 17 17 20 21 8 14
39 40 40 42 38 36 34 32 35 38 37 35 32 25 19 16 16 26 29 28 26 21 16 13 13 13 12 10 11 10 8 10 10 10 13 12 8 17 16 16 17 15 14
37 41 40 38 37 34 33 33 35 35 35 33 28 23 20 16 20 28 28 25 22 18 15 13 12 12 11 9 7 5 5 5 7 7 15 5 5 14 14 13 13 15 14
37 38 39 37 35 33 32 32 34 33 33 31 27 23 19 19 22 28 26 23 20 16 13 12 11 10 8 6 4 4 3 1 4 6 5 5 5 16 13 12 8 9 11
36 36 37 36 34 31 30 30 32 32 31 28 24 21 20 21 25 27 25 21 17 14 12 11 11 9 7 5 5 5 7 8 8 9 11 10 10 8 9 10 10 8 6
36 34 37 35 33 30 29 27 29 30 28 25 21 21 23 24 25 24 22 19 15 13 11 10 9 8 8 8 8 9 11 12 11 12 13 12 8 10 9 9 10 11 8
35 34 37 36 34 31 29 28 27 26 24 22 21 24 25 25 25 23 21 18 15 13 12 10 8 9 9 10 11 12 13 15 15 16 16 14 14 10 12 13 10 11 9
34 33 34 36 36 32 31 29 25 23 22 23 23 26 26 25 24 22 21 18 16 14 12 10 9 10 10 11 12 15 16 16 16 17 18 14 23 16 11 10 11 10 11
33 31 32 36 37 35 33 32 27 22 21 24 25 27 27 26 25 24 22 20 18 16 14 13 13 12 12 14 15 15 17 19 17 15 19 17 22 18 12 12 13 12 14
32 32 31 32 34 33 32 34 31 28 25 26 28 29 28 26 26 26 25 22 21 20 19 18 17 16 16 16 17 18 20 15 16 15 15 22 17 18 16 15 17 16 16
33 33 32 33 34 34 31 33 38 36 33 32 33 33 31 25 24 22 26 24 25 23 22 21 20 19 19 16 19 21 17 17 18 18 14 18 15 14 18 20 21 20 19
29 31 33 36 37 36 33 32 33 33 34 37 38 38 35 28 28 30 23 26 28 25 23 23 24 22 19 20 19 19 19 20 19 17 16 23 22 20 23 25 28 25 22
29 32 34 36 42 43 35 36 35 36 36 35 38 43 38 38 34 30 24 23 24 21 20 23 20 23 28 30 30 28 27 24 21 22 21 27 28 27 26 25 24 24 23
30 32 34 36 39 44 51 40 39 38 37 34 35 39 41 36 33 30 30 26 24 23 23 22 24 26 26 27 29 31 34 32 32 30 24 33 29 31 32 30 26 26 25
30 33 33 38 41 45 49 51 39 39 37 37 35 34 41 38 35 30 31 32 29 27 27 26 26 27 27 28 31 33 37 37 32 32 26 27 34 32 33 34 31 28 28
27 28 35 39 41 47 54 54 50 41 40 38 36 37 38 33 33 30 28 28 28 28 31 35 38 33 32 32 35 37 38 39 33 31 35 28 25 34 32 30 33 31 29
31 33 33 34 38 46 52 54 50 43 40 39 36 32 39 29 33 33 32 30 27 24 23 23 25 27 28 29 30 33 36 37 39 47 42 40 26 25 29 31 31 36 34
41 42 43 41 39 39 43 48 46 42 41 36 36 34 38 37 39 33 26 23 31 27 24 26 26 28 30 29 30 31 33 36 39 41 44 51 48 43 39 35 39 40 41
45 47 49 50 45 42 36 41 41 41 43 40 38 36 35 36 39 41 28 27 27 24 24 26 28 28 31 31 32 35 35 36 36 40 43 51 54 54 49 49 42 41 47
42 49 53 55 51 48 42 35 37 42 41 42 39 39 39 38 37 37 30 28 28 29 29 29 27 28 29 30 34 40 44 46 45 44 43 40 41 49 48 46 49 45 43
28 34 46 58 54 55 41 37 31 32 35 36 35 36 44 43 41 41 36 29 28 27 29 28 31 27 30 28 36 35 43 45 44 40 44 49 51 40 41 43 40 45 39
12 15 21 37 49 48 45 38 38 31 33 34 33 31 39 37 40 37 32 27 26 25 24 26 30 34 30 30 33 32 33 43 44 40 43 43 49 53 46 43 57 57 53
12 17 21 31 40 46 52 38 41 31 31 31 31 31 32 34 41 37 29 26 27 22 24 23 23 23 29 31 32 37 41 47 51 58 50 45 42 45 49 48 49 50 57
14 13 19 29 35 35 42 39 35 34 33 32 27 33 31 37 33 24 23 25 25 19 23 27 28 27 28 34 35 38 42 48 53 51 57 58 55 53 49 49 43 44 49
24 21 11 4 7 12 17 20 26 29 29 26 25 20 20 20 24 24 21 22 26 26 29 28 29 32 34 37 37 41 43 45 50 53 53 56 60 58 51 50 48 44 46
Wind_Direction_500mb
162 176 177 170 169 169 166 166 171 173 168 165 160 152 145 137 123 135 142 140 138 141 142 136 127 121 118 117 113 105 100 91 82 77 64 67 66 69 71 74 83 50 61
163 177 175 171 170 170 165 163 169 168 171 169 166 161 157 151 156 150 150 149 144 145 144 141 137 132 126 119 113 109 100 78 72 73 54 58 62 61 67 73 87 82 64
160 170 177 171 171 171 166 164 165 171 172 173 172 171 172 176 172 158 154 152 152 150 152 151 146 139 130 119 113 112 99 83 67 63 63 68 9 38 49 57 68 68 62
160 167 175 174 173 172 170 168 170 174 175 177 179 182 185 192 172 160 156 154 153 154 158 156 149 145 140 132 129 130 126 90 68 59 51 14 18 5 31 44 53 59 56
159 169 176 176 176 175 176 174 176 178 180 182 185 191 197 186 169 163 161 159 159 162 162 155 156 160 158 154 165 183 205 311 6 18 349 357 340 304 358 27 35 49 60
158 166 174 176 178 179 179 179 183 184 184 186 192 199 192 177 168 167 167 168 169 170 169 169 174 181 188 199 220 242 259 280 305 343 307 321 352 267 330 3 11 8 21
162 167 176 177 181 182 183 185 188 187 189 193 199 195 183 174 172 173 175 180 182 185 187 188 191 201 220 231 243 254 266 278 289 288 289 304 308 288 296 330 354 358 346
165 168 179 180 184 184 186 188 190 193 199 201 198 187 181 179 179 181 187 193 196 199 205 208 213 221 233 252 267 274 283 297 302 292 290 286 276 300 311 320 330 334 331
167 168 182 186 187 188 189 191 194 201 208 205 195 187 185 187 190 194 202 208 212 216 220 227 236 242 253 265 276 290 298 299 307 295 296 294 279 274 292 299 308 317 321
169 175 178 187 192 194 194 196 199 203 206 203 199 197 199 202 205 209 215 219 222 229 233 238 244 252 250 261 271 275 287 298 310 281 293 282 295 272 282 299 300 313 321
173 181 180 184 190 191 197 204 203 207 208 207 206 206 208 212 218 222 224 226 229 232 236 241 247 254 264 269 274 283 288 289 271 285 288 283 291 271 273 286 300 307 310
180 184 188 188 193 192 197 205 210 214 214 213 212 215 213 209 215 214 230 231 235 238 243 249 256 261 264 265 285 283 291 270 286 282 289 291 292 279 278 288 292 297 299
188 188 192 198 202 199 202 205 206 210 211 216 218 220 216 215 225 228 230 240 242 245 251 261 260 262 253 248 257 262 267 282 281 285 278 286 281 278 286 291 294 289 281
198 199 200 208 216 214 207 213 212 211 214 215 219 225 219 225 227 220 225 227 235 234 236 240 246 247 261 271 270 269 271 272 275 271 277 274 270 269 282 284 292 294 284
211 210 209 214 225 226 222 217 214 217 221 219 220 227 228 229 228 232 231 229 230 237 244 244 251 255 264 271 271 273 274 269 272 276 275 278 268 269 271 272 277 281 285
221 221 218 230 236 235 235 226 221 219 220 221 223 224 232 230 230 232 239 242 238 240 243 247 254 257 261 261 264 267 269 268 265 267 270 269 276 269 272 270 267 266 273
230 224 223 229 237 242 238 236 230 226 225 226 228 226 236 238 240 237 231 236 239 236 241 252 258 264 267 264 264 261 263 266 261 262 273 272 269 282 273 274 267 263 267
233 230 224 225 231 246 245 243 234 229 227 225 227 227 237 231 230 233 228 233 236 242 241 245 248 257 259 261 261 259 259 256 253 264 262 261 254 250 271 271 262 263 265
245 237 237 237 239 244 244 237 234 228 226 225 226 225 233 225 233 233 235 232 244 248 250 244 249 252 256 262 265 266 262 258 257 257 250 258 259 258 264 268 270 266 267
240 239 240 240 242 242 238 236 229 227 229 225 225 226 238 230 235 244 244 239 244 245 247 248 247 248 255 258 265 264 261 262 262 259 260 263 260 261 261 267 264 266 266
237 236 241 238 237 240 244 228 224 228 225 224 224 227 233 233 229 235 234 242 245 244 245 246 251 261 261 265 271 271 274 273 269 261 266 262 258 260 260 260 269 261 260
237 237 244 236 231 236 238 233 229 233 225 221 219 221 229 232 233 233 235 237 245 250 260 258 260 257 266 264 263 276 279 279 271 270 268 264 262 253 259 267 268 271 275
254 235 232 229 230 236 231 238 234 229 212 215 213 220 228 232 237 240 243 240 242 253 254 260 264 267 262 264 261 258 280 277 288 271 280 275 264 265 263 261 259 266 271
272 253 243 236 236 238 241 226 230 220 226 222 211 211 216 234 238 241 237 241 248 241 248 261 266 259 267 270 269 266 268 273 278 286 277 274 274 274 264 260 261 269 267
1 297 261 246 245 234 239 224 231 226 223 214 201 218 212 228 230 224 232 240 245 248 257 257 261 267 263 272 271 276 274 276 276 272 280 278 276 269 275 280 277 265 260
41 41 38 8 279 262 249 233 225 226 218 204 199 191 189 197 211 225 236 248 262 264 264 266 266 271 270 261 265 268 271 273 277 279 280 278 278 280 275 275 274 277 271
Wind_Speed_850mb
29 37 43 40 39 36 33 30 32 38 38 35 32 28 25 20 14 19 28 33 30 28 25 20 17 15 14 14 15 17 18 16 16 16 18 20 21 20 21 22 24 10 14
39 36 44 42 40 36 32 32 38 39 39 36 31 27 22 16 12 21 28 30 28 26 21 16 13 12 12 13 14 15 14 13 12 11 14 18 19 17 17 20 21 8 14
39 40 40 42 38 36 34 32 35 38 37 35 32 25 19 16 16 26 29 28 26 21 16 13 13 13 12 10 11 10 8 10 10 10 13 12 8 17 16 16 17 15 14
37 41 40 38 37 34 33 33 35 35 35 33 28 23 20 16 20 28 28 25 22 18 15 13 12 12 11 9 7 5 5 5 7 7 15 5 5 14 14 13 13 15 14
37 38 39 37 35 33 32 32 34 33 33 31 27 23 19 19 22 28 26 23 20 16 13 12 11 10 8 6 4 4 3 1 4 6 5 5 5 16 13 12 8 9 11
36 36 37 36 34 31 30 30 32 32 31 28 24 21 20 21 25 27 25 21 17 14 12 11 11 9 7 5 5 5 7 8 8 9 11 10 10 8 9 10 10 8 6
36 34 37 35 33 30 29 27 29 30 28 25 21 21 23 24 25 24 22 19 15 13 11 10 9 8 8 8 8 9 11 12 11 12 13 12 8 10 9 9 10 11 8
35 34 37 36 34 31 29 28 27 26 24 22 21 24 25 25 25 23 21 18 15 13 12 10 8 9 9 10 11 12 13 15 15 16 16 14 14 10 12 13 10 11 9
34 33 34 36 36 32 31 29 25 23 22 23 23 26 26 25 24 22 21 18 16 14 12 10 9 10 10 11 12 15 16 16 16 17 18 14 23 16 11 10 11 10 11
33 31 32 36 37 35 33 32 27 22 21 24 25 27 27 26 25 24 22 20 18 16 14 13 13 12 12 14 15 15 17 19 17 15 19 17 22 18 12 12 13 12 14
32 32 31 32 34 33 32 34 31 28 25 26 28 29 28 26 26 26 25 22 21 20 19 18 17 16 16 16 17 18 20 15 16 15 15 22 17 18 16 15 17 16 16
33 33 32 33 34 34 31 33 38 36 33 32 33 33 31 25 24 22 26 24 25 23 22 21 20 19 19 16 19 21 17 17 18 18 14 18 15 14 18 20 21 20 19
29 31 33 36 37 36 33 32 33 33 34 37 38 38 35 28 28 30 23 26 28 25 23 23 24 22 19 20 19 19 19 20 19 17 16 23 22 20 23 25 28 25 22
29 32 34 36 42 43 35 36 35 36 36 35 38 43 38 38 34 30 24 23 24 21 20 23 20 23 28 30 30 28 27 24 21 22 21 27 28 27 26 25 24 24 23
30 32 34 36 39 44 51 40 39 38 37 34 35 39 41 36 33 30 30 26 24 23 23 22 24 26 26 27 29 31 34 32 32 30 24 33 29 31 32 30 26 26 25
30 33 33 38 41 45 49 51 39 39 37 37 35 34 41 38 35 30 31 32 29 27 27 26 26 27 27 28 31 33 37 37 32 32 26 27 34 32 33 34 31 28 28
27 28 35 39 41 47 54 54 50 41 40 38 36 37 38 33 33 30 28 28 28 28 31 35 38 33 32 32 35 37 38 39 33 31 35 28 25 34 32 30 33 31 29
31 33 33 34 38 46 52 54 50 43 40 39 36 32 39 29 33 33 32 30 27 24 23 23 25 27 28 29 30 33 36 37 39 47 42 40 26 25 29 31 31 36 34
41 42 43 41 39 39 43 48 46 42 41 36 36 34 38 37 39 33 26 23 31 27 24 26 26 28 30 29 30 31 33 36 39 41 44 51 48 43 39 35 39 40 41
45 47 49 50 45 42 36 41 41 41 43 40 38 36 35 36 39 41 28 27 27 24 24 26 28 28 31 31 32 35 35 36 36 40 43 51 54 54 49 49 42 41 47
42 49 53 55 51 48 42 35 37 42 41 42 39 39 39 38 37 37 30 28 28 29 29 29 27 28 29 30 34 40 44 46 45 44 43 40 41 49 48 46 49 45 43
28 34 46 58 54 55 41 37 31 32 35 36 35 36 44 43 41 41 36 29 28 27 29 28 31 27 30 28 36 35 43 45 44 40 44 49 51 40 41 43 40 45 39
12 15 21 37 49 48 45 38 38 31 33 34 33 31 39 37 40 37 32 27 26 25 24 26 30 34 30 30 33 32 33 43 44 40 43 43 49 53 46 43 57 57 53
12 17 21 31 40 46 52 38 41 31 31 31 31 31 32 34 41 37 29 26 27 22 24 23 23 23 29 31 32 37 41 47 51 58 50 45 42 45 49 48 49 50 57
14 13 19 29 35 35 42 39 35 34 33 32 27 33 31 37 33 24 23 25 25 19 23 27 28 27 28 34 35 38 42 48 53 51 57 58 55 53 49 49 43 44 49
24 21 11 4 7 12 17 20 26 29 29 26 25 20 20 20 24 24 21 22 26 26 29 28 29 32 34 37 37 41 43 45 50 53 53 56 60 58 51 50 48 44 46
Wind_Direction_850mb
162 176 177 170 169 169 166 166 171 173 168 165 160 152 145 137 123 135 142 140 138 141 142 136 127 121 118 117 113 105 100 91 82 77 64 67 66 69 71 74 83 50 61
163 177 175 171 170 170 165 163 169 168 171 169 166 161 157 151 156 150 150 149 144 145 144 141 137 132 126 119 113 109 100 78 72 73 54 58 62 61 67 73 87 82 64
160 170 177 171 171 171 166 164 165 171 172 173 172 171 172 176 172 158 154 152 152 150 152 151 146 139 130 119 113 112 99 83 67 63 63 68 9 38 49 57 68 68 62
160 167 175 174 173 172 170 168 170 174 175 177 179 182 185 192 172 160 156 154 153 154 158 156 149 145 140 132 129 130 126 90 68 59 51 14 18 5 31 44 53 59 56
159 169 176 176 176 175 176 174 176 178 180 182 185 191 197 186 169 163 161 159 159 162 162 155 156 160 158 154 165 183 205 311 6 18 349 357 340 304 358 27 35 49 60
158 166 174 176 178 179 179 179 183 184 184 186 192 199 192 177 168 167 167 168 169 170 169 169 174 181 188 199 220 242 259 280 305 343 307 321 352 267 330 3 11 8 21
162 167 176 177 181 182 183 185 188 187 189 193 199 195 183 174 172 173 175 180 182 185 187 188 191 201 220 231 243 254 266 278 289 288 289 304 308 288 296 330 354 358 346
165 168 179 180 184 184 186 188 190 193 199 201 198 187 181 179 179 181 187 193 196 199 205 208 213 221 233 252 267 274 283 297 302 292 290 286 276 300 311 320 330 334 331
167 168 182 186 187 188 189 191 194 201 208 205 195 187 185 187 190 194 202 208 212 216 220 227 236 242 253 265 276 290 298 299 307 295 296 294 279 274 292 299 308 317 321
169 175 178 187 192 194 194 196 199 203 206 203 199 197 199 202 205 209 215 219 222 229 233 238 244 252 250 261 271 275 287 298 310 281 293 282 295 272 282 299 300 313 321
173 181 180 184 190 191 197 204 203 207 208 207 206 206 208 212 218 222 224 226 229 232 236 241 247 254 264 269 274 283 288 289 271 285 288 283 291 271 273 286 300 307 310
180 184 188 188 193 192 197 205 210 214 214 213 212 215 213 209 215 214 230 231 235 238 243 249 256 261 264 265 285 283 291 270 286 282 289 291 292 279 278 288 292 297 299
188 188 192 198 202 199 202 205 206 210 211 216 218 220 216 215 225 228 230 240 242 245 251 261 260 262 253 248 257 262 267 282 281 285 278 286 281 278 286 291 294 289 281
198 199 200 208 216 214 207 213 212 211 214 215 219 225 219 225 227 220 225 227 235 234 236 240 246 247 261 271 270 269 271 272 275 271 277 274 270 269 282 284 292 294 284
211 210 209 214 225 226 222 217 214 217 221 219 220 227 228 229 228 232 231 229 230 237 244 244 251 255 264 271 271 273 274 269 272 276 275 278 268 269 271 272 277 281 285
221 221 218 230 236 235 235 226 221 219 220 221 223 224 232 230 230 232 239 242 238 240 243 247 254 257 261 261 264 267 269 268 265 267 270 269 276 269 272 270 267 266 273
230 224 223 229 237 242 238 236 230 226 225 226 228 226 236 238 240 237 231 236 239 236 241 252 258 264 267 264 264 261 263 266 261 262 273 272 269 282 273 274 267 263 267
233 230 224 225 231 246 245 243 234 229 227 225 227 227 237 231 230 233 228 233 236 242 241 245 248 257 259 261 261 259 259 256 253 264 262 261 254 250 271 271 262 263 265
245 237 237 237 239 244 244 237 234 228 226 225 226 225 233 225 233 233 235 232 244 248 250 244 249 252 256 262 265 266 262 258 257 257 250 258 259 258 264 268 270 266 267
240 239 240 240 242 242 238 236 229 227 229 225 225 226 238 230 235 244 244 239 244 245 247 248 247 248 255 258 265 264 261 262 262 259 260 263 260 261 261 267 264 266 266
237 236 241 238 237 240 244 228 224 228 225 224 224 227 233 233 229 235 234 242 245 244 245 246 251 261 261 265 271 271 274 273 269 261 266 262 258 260 260 260 269 261 260
237 237 244 236 231 236 238 233 229 233 225 221 219 221 229 232 233 233 235 237 245 250 260 258 260 257 266 264 263 276 279 279 271 270 268 264 262 253 259 267 268 271 275
254 235 232 229 230 236 231 238 234 229 212 215 213 220 228 232 237 240 243 240 242 253 254 260 264 267 262 264 261 258 280 277 288 271 280 275 264 265 263 261 259 266 271
272 253 243 236 236 238 241 226 230 220 226 222 211 211 216 234 238 241 237 241 248 241 248 261 266 259 267 270 269 266 268 273 278 286 277 274 274 274 264 260 261 269 267
1 297 261 246 245 234 239 224 231 226 223 214 201 218 212 228 230 224 232 240 245 248 257 257 261 267 263 272 271 276 274 276 276 272 280 278 276 269 275 280 277 265 260
41 41 38 8 279 262 249 233 225 226 218 204 199 191 189 197 211 225 236 248 262 264 264 266 266 271 270 261 265 268 271 273 277 279 280 278 278 280 275 275 274 277 271